Vorticity
3 3 3 3 3 3 3 3 3 3 3 3 3 3 2 2 2 2 2 2 2 2 2 2 2 2 2 2 2 2 2 2 2 2 2 2 2 2 2 2 2 2 2 2 2 3 3 3 4 4 5 5 5 6 5 5 5 4 4 4 4 4 5 5 6 6 6 6 6 6 6 5 5 5 5 5 5 5 5 5 5 5 5 5 5 5 6 5 5 5 5 5 5 5 4 4 4 4 4 4 4 4 4
2 2 3 3 3 3 3 3 3 3 3 3 3 3 3 3 2 2 2 2 2 2 2 2 2 2 2 2 2 2 2 2 2 2 2 2 2 2 2 2 2 2 2 2 2 2 2 3 3 3 4 4 5 5 5 5 5 4 4 4 4 4 4 4 5 5 6 6 6 6 6 6 6 6 6 6 6 6 6 6 6 6 6 6 6 6 6 5 5 5 5 5 5 5 5 4 4 4 4 4 4 4 4
1 2 2 2 2 3 3 3 3 3 3 3 3 3 3 3 3 2 2 2 2 2 2 2 2 2 2 2 2 2 2 2 2 2 2 2 2 2 2 2 2 2 2 2 2 2 2 2 3 3 3 3 4 4 5 5 5 5 4 4 4 3 3 3 4 4 5 5 6 6 7 7 7 7 7 7 7 7 6 6 6 6 6 6 6 5 5 5 5 5 5 5 5 5 5 5 4 4 4 4 4 4 4
1 1 1 2 2 3 3 3 3 3 3 3 3 3 3 3 3 2 2 2 2 2 2 1 1 1 1 2 2 2 2 2 2 2 2 2 2 2 2 2 2 2 2 2 2 2 2 2 2 3 3 3 3 3 4 4 4 4 4 4 4 4 4 3 3 3 4 4 5 5 6 6 7 7 7 7 7 7 7 7 7 6 6 6 6 6 5 5 5 5 5 5 5 5 4 4 4 4 4 4 4 4 4
1 1 1 1 2 2 2 2 2 2 2 2 2 2 2 2 2 2 2 2 2 2 2 1 1 1 1 1 1 2 2 1 1 1 1 1 1 2 2 2 2 2 2 2 2 2 2 2 2 2 2 3 3 3 3 3 3 4 4 4 4 4 4 4 4 3 3 3 3 4 4 5 6 6 6 7 7 7 7 7 7 6 6 6 6 6 5 5 5 5 5 5 5 4 4 4 4 4 4 4 4 4 4
1 0 0 0 1 1 1 2 2 2 2 2 2 2 2 2 2 2 2 2 1 1 1 1 1 1 1 1 1 1 1 1 1 1 1 1 1 1 1 2 2 2 2 2 2 2 2 2 2 2 2 3 3 3 3 3 3 3 4 4 4 4 4 4 4 4 4 3 3 3 3 3 3 4 4 4 5 5 5 5 6 6 6 6 6 6 5 5 5 5 4 4 4 4 4 4 4 4 4 4 4 4 4
2 1 0 0 0 0 0 1 1 1 1 1 1 1 1 1 1 1 1 1 1 1 1 1 1 0 0 1 1 1 1 1 1 1 1 1 1 1 1 1 1 2 2 2 2 3 3 3 3 3 3 3 3 3 3 3 3 3 3 4 4 4 4 4 4 4 4 4 3 3 2 2 2 2 1 1 1 2 2 3 3 4 5 5 6 5 5 5 5 4 4 4 4 4 4 4 4 4 4 4 4 4 4
3 2 2 1 0 0 -0 0 0 0 1 1 1 1 1 1 1 1 1 1 1 1 1 0 0 0 0 0 1 1 1 1 1 1 1 1 1 1 1 1 1 1 2 2 2 3 3 3 3 3 3 3 3 3 3 3 3 3 3 3 4 4 4 4 4 4 4 4 4 4 3 2 2 1 0 -0 -0 -0 0 1 2 2 3 4 4 5 5 4 4 4 4 4 4 4 4 4 4 4 4 4 4 4 4
6 4 3 2 2 1 0 0 0 0 0 0 1 1 1 1 1 1 0 0 0 0 0 0 0 0 0 0 0 1 1 1 1 1 1 1 1 1 1 1 1 1 1 2 2 3 3 3 4 4 4 3 3 3 3 3 4 4 4 4 4 4 4 4 4 5 5 5 5 5 4 4 3 3 2 1 0 0 0 1 1 2 2 3 3 4 4 4 4 4 4 4 4 4 4 4 4 4 4 4 4 4 5
8 7 6 4 3 3 2 1 1 1 1 1 1 1 1 1 1 1 1 0 0 0 0 0 0 0 0 0 1 1 1 2 2 2 2 1 1 1 1 1 1 1 2 2 2 3 3 4 4 4 4 4 4 4 4 4 4 4 4 4 4 4 4 4 4 5 5 5 5 5 5 5 5 5 4 4 3 2 2 2 2 3 3 3 3 4 4 4 5 4 4 4 4 4 4 4 4 5 5 5 5 5 5
11 11 10 8 7 5 4 3 2 2 2 1 1 1 1 1 1 1 1 1 0 0 0 0 0 1 1 1 1 1 2 2 2 2 2 2 2 2 2 2 2 2 2 2 3 3 4 4 4 4 4 4 4 4 4 4 4 4 4 4 4 4 4 4 5 5 5 5 6 6 6 7 7 7 7 6 6 5 5 4 4 4 4 4 4 5 5 5 6 6 5 5 5 5 5 5 5 5 5 5 5 5 5
13 13 13 12 11 9 8 6 5 4 3 3 2 2 1 1 1 1 1 1 1 0 0 0 1 1 1 1 1 2 2 2 3 3 3 3 3 3 3 3 3 3 3 3 3 4 4 4 4 4 5 5 5 5 5 4 4 5 5 5 5 5 5 5 5 5 5 6 6 6 7 7 7 7 8 8 8 7 7 6 6 6 6 6 6 6 6 6 7 7 7 6 6 6 6 6 6 6 6 6 6 6 5
12 13 14 14 13 13 12 10 9 7 6 5 4 3 2 2 1 1 1 1 1 1 1 1 1 1 1 1 2 2 3 3 3 4 4 4 4 3 3 4 4 4 4 4 4 4 4 4 4 5 5 5 5 5 5 5 5 5 5 5 5 5 5 5 5 5 5 5 6 6 7 7 7 7 8 8 8 8 8 7 7 6 6 6 6 7 7 7 7 7 8 7 7 7 7 7 7 6 6 6 6 6 6
10 10 12 12 13 13 14 13 12 12 10 9 7 6 4 3 2 2 1 1 1 1 1 1 1 1 1 2 2 2 3 3 4 4 4 4 4 4 4 4 4 5 5 5 5 5 5 5 5 5 5 5 5 5 5 5 5 5 5 5 5 5 5 5 5 5 5 5 5 6 6 6 7 7 7 8 8 8 8 7 7 7 6 6 6 7 7 7 7 7 8 8 8 7 7 7 7 7 6 6 6 6 6
6 7 8 9 10 12 13 14 14 14 14 13 12 10 8 7 6 4 4 3 2 2 2 2 2 2 2 2 2 3 3 4 4 4 5 5 5 5 5 5 5 5 6 6 5 5 5 5 5 5 5 5 5 5 5 5 5 5 5 6 6 5 5 5 5 5 5 5 5 5 5 5 6 6 6 7 7 7 7 7 6 6 6 6 6 6 6 6 6 6 7 7 7 7 7 6 6 6 6 6 5 5 5
3 4 5 6 7 9 10 12 13 14 15 16 16 15 14 12 10 9 7 6 5 4 3 3 3 3 2 2 2 3 3 4 4 5 5 5 5 6 6 6 6 6 6 6 6 6 6 5 5 5 5 5 5 4 4 5 5 5 5 6 6 6 6 5 5 5 5 4 4 4 4 5 5 5 5 5 6 6 5 5 5 5 5 5 5 5 5 5 5 5 5 5 5 5 5 5 5 4 4 4 4 4 4
2 3 3 4 5 6 7 8 10 11 13 15 16 16 17 16 15 14 12 11 9 8 6 6 5 4 4 3 3 3 3 3 4 4 5 5 6 6 6 6 6 6 6 6 6 6 6 6 5 5 5 5 5 4 4 5 5 5 5 5 6 6 6 5 5 5 5 4 4 4 4 4 4 4 4 4 4 4 4 4 4 4 4 4 4 4 4 4 4 4 4 4 4 3 3 3 3 3 3 3 3 2 2
3 3 3 3 3 4 4 5 6 7 9 11 13 14 16 17 17 17 16 15 14 12 10 9 8 6 5 4 4 3 3 3 3 4 4 5 5 6 6 6 6 6 6 6 6 6 6 6 6 6 5 5 5 5 5 5 5 5 5 5 5 5 5 5 5 5 5 4 4 4 4 4 4 4 4 4 4 4 3 3 3 3 3 3 3 3 3 3 3 3 3 3 3 3 3 2 2 2 2 2 2 2 2
5 4 3 3 3 3 3 3 4 4 5 6 8 10 12 13 15 16 16 16 16 15 14 13 11 10 8 7 6 5 4 3 3 4 4 4 5 5 5 5 5 6 6 6 6 6 6 6 6 6 6 6 5 5 5 5 5 5 5 5 5 5 5 5 5 5 5 4 4 4 3 3 3 3 3 3 3 3 3 3 3 3 3 3 3 3 3 3 3 3 2 2 2 2 2 2 2 2 2 2 3 3 2
4 4 4 3 3 3 3 3 3 3 3 4 5 6 7 9 10 12 13 14 15 15 15 15 14 13 12 10 9 7 6 5 4 4 3 4 4 4 4 4 5 5 5 5 5 5 5 5 5 6 6 6 6 5 5 5 5 5 5 5 4 4 5 5 5 5 5 4 4 4 3 3 3 3 3 3 3 3 3 3 3 3 3 3 3 3 3 3 3 3 2 2 2 2 2 3 3 3 3 3 3 3 3
3 4 3 3 3 3 4 3 3 3 3 3 3 4 4 5 6 8 9 11 12 13 14 14 15 14 14 13 12 11 10 8 6 5 4 4 3 3 3 3 4 4 4 4 4 4 4 4 5 5 5 5 5 5 5 5 5 5 5 4 4 4 4 4 5 5 4 4 4 4 3 3 3 3 3 3 3 3 3 3 3 3 3 3 3 3 3 3 3 3 3 3 3 3 3 3 3 3 3 3 3 3 4
3 3 3 3 4 4 4 4 4 4 4 3 3 3 3 3 4 5 6 7 9 10 11 13 13 14 14 14 14 13 12 11 10 8 6 5 4 4 3 3 3 3 3 3 3 3 3 4 4 4 5 5 5 5 5 5 5 5 4 4 4 4 4 4 4 4 4 4 4 4 4 3 3 3 3 3 3 3 3 3 3 3 3 3 3 3 3 3 3 3 3 3 3 3 3 3 3 3 3 3 3 3 3
3 3 4 4 4 4 4 4 4 4 4 3 3 3 3 3 3 4 4 5 6 7 8 10 11 12 13 14 14 14 13 13 13 11 10 8 7 6 5 4 4 3 3 3 3 3 3 3 3 3 4 4 4 4 4 4 4 4 4 4 3 3 3 3 4 4 4 4 4 4 4 3 3 3 3 3 3 3 2 2 2 2 3 3 3 3 3 3 3 3 3 3 3 3 3 2 2 2 2 2 2 2 2
2 3 5 5 5 4 4 4 4 4 4 4 3 3 3 3 3 3 3 4 4 5 6 7 8 10 10 12 12 13 13 13 13 13 12 11 10 9 8 7 6 5 4 3 3 3 2 2 3 3 3 3 4 4 4 4 4 4 4 4 3 3 3 3 3 4 4 4 4 4 4 4 3 3 3 2 2 2 2 2 2 2 2 2 2 3 3 3 3 3 3 3 3 2 2 2 2 2 2 2 2 2 2
0 1 3 4 4 4 3 3 4 4 4 3 3 3 3 3 2 2 2 3 3 4 4 5 6 7 8 10 11 12 12 12 13 13 13 13 12 12 11 10 8 7 6 5 5 4 3 3 3 3 3 3 3 3 3 3 3 4 4 4 3 3 3 3 3 4 4 4 4 4 4 4 3 3 3 2 2 2 1 1 1 2 2 2 3 3 3 3 3 3 3 2 2 2 1 1 1 1 1 1 2 2 3
1 0 1 1 2 3 3 3 3 3 3 3 3 2 2 2 3 3 3 3 3 3 3 3 4 5 6 7 9 10 11 11 11 12 12 12 12 12 12 12 11 10 9 8 7 6 5 5 4 4 4 3 3 3 3 3 3 3 3 3 3 3 3 3 4 4 4 4 4 4 4 3 3 3 2 2 1 1 1 1 2 2 3 3 3 4 4 4 3 3 2 2 1 1 1 1 1 1 2 2 2 3 4
2 2 1 1 2 3 3 3 3 3 3 2 2 2 2 3 3 3 3 3 3 2 2 2 3 4 5 5 6 7 9 9 10 10 11 11 11 12 12 12 12 12 11 10 9 8 7 7 6 6 5 4 4 4 3 3 3 3 3 3 3 3 3 3 3 3 4 4 4 3 3 3 3 2 2 1 1 1 1 2 2 3 4 4 4 4 5 4 4 3 2 2 1 1 1 2 2 3 3 3 4 4 5
2 2 2 2 3 3 4 3 3 3 3 2 3 3 3 4 4 4 4 3 3 2 2 2 2 2 3 4 4 5 6 7 8 9 9 9 10 10 10 11 12 12 12 12 11 10 9 8 8 7 7 6 6 5 5 4 4 4 3 3 3 3 3 3 3 3 3 3 3 3 3 2 2 2 2 1 1 1 2 3 4 5 5 5 5 5 5 4 4 3 3 2 2 2 3 3 4 5 5 6 6 6 7
1 2 2 3 3 4 4 4 4 3 3 3 3 4 5 5 5 4 3 3 2 2 2 2 2 2 2 3 3 4 4 5 6 7 7 8 8 8 8 9 10 11 12 12 12 11 10 10 9 9 8 8 7 7 6 6 6 5 5 4 4 4 3 3 3 3 3 3 3 3 2 2 2 2 2 2 2 2 3 4 5 6 6 6 6 5 5 4 4 4 3 3 3 3 4 5 6 7 8 8 8 8 8
1 1 1 2 3 4 4 4 4 4 4 4 5 6 7 7 5 4 3 2 2 2 2 2 2 2 2 2 2 3 3 4 4 5 5 6 6 6 6 7 8 9 10 11 12 12 11 11 10 10 10 9 9 8 8 8 7 7 6 6 5 4 4 4 3 3 3 3 3 3 3 3 2 2 2 2 3 3 4 5 6 7 7 7 6 6 5 5 4 4 4 4 4 5 6 7 8 10 10 10 10 10 10
1 1 1 1 1 2 4 4 5 5 5 5 6 6 6 5 4 3 2 2 2 2 2 2 2 3 3 3 3 3 3 3 3 3 3 3 4 4 5 5 6 6 8 9 10 11 11 11 11 10 10 10 10 10 9 9 9 8 7 7 6 6 5 5 4 4 4 4 3 3 3 3 3 3 3 3 3 4 4 6 7 7 8 8 7 6 5 5 5 4 4 5 5 6 7 9 10 11 12 12 12 11 10
2 2 1 1 -0 -1 1 3 4 5 5 4 4 3 2 2 1 1 1 2 2 3 3 3 3 4 4 4 3 3 2 2 2 2 2 2 2 3 3 3 4 5 5 7 8 9 10 10 10 10 10 10 10 10 10 10 10 10 9 8 7 7 6 6 5 5 4 4 4 4 4 4 4 4 4 4 5 5 6 7 7 8 8 8 7 6 6 5 5 5 5 5 6 7 9 10 11 11 12 12 11 11 10
3 2 2 2 0 -1 -1 -0 1 2 3 3 2 1 1 0 0 0 1 2 2 3 4 4 4 4 4 4 4 3 3 2 2 2 2 2 2 2 3 3 3 3 4 5 6 7 8 9 10 10 10 10 10 10 10 10 10 10 10 9 8 8 7 7 6 6 5 5 5 5 5 5 5 5 6 6 6 7 7 8 8 8 8 8 7 7 6 5 5 5 6 6 7 8 10 10 10 11 11 11 11 11 11
4 3 3 2 2 1 0 -1 -1 -1 -0 0 0 0 -0 -0 0 1 1 2 2 4 6 6 6 5 4 4 4 3 3 3 3 3 3 2 2 2 2 2 2 3 3 4 5 6 7 7 8 8 9 9 9 10 10 10 10 10 10 10 9 8 8 7 7 7 7 6 6 6 6 6 7 7 7 7 7 7 8 8 8 8 8 8 7 7 6 6 6 6 7 7 8 9 10 10 10 10 11 11 11 12 12
6 5 4 4 4 3 3 1 0 -0 -0 0 0 0 0 0 1 2 2 2 4 6 10 10 8 6 5 4 3 3 2 2 3 3 3 3 2 2 2 2 2 2 3 3 4 4 5 6 6 6 7 7 8 8 9 9 10 10 10 10 9 9 8 8 8 8 8 8 8 8 8 8 8 8 8 8 8 8 8 8 8 8 8 7 7 7 6 6 6 7 7 8 9 9 10 10 10 11 11 12 12 12 11
9 8 7 7 6 6 5 4 3 3 2 2 2 2 2 2 2 2 2 3 4 6 10 9 8 6 4 3 3 2 2 2 2 3 3 3 3 2 3 2 2 3 3 3 3 4 4 4 4 5 5 6 6 7 7 8 8 9 9 9 9 9 9 9 9 9 10 10 10 10 10 10 10 10 9 9 9 9 9 8 8 8 7 7 7 7 7 7 7 8 8 9 9 10 10 10 11 11 11 11 11 10 9
11 10 10 9 8 7 6 5 5 5 5 5 5 5 5 5 4 4 3 5 5 4 5 5 5 5 4 3 2 2 2 2 2 3 3 3 3 3 3 3 3 3 3 3 3 3 4 3 3 4 4 4 5 5 6 7 7 8 9 9 9 10 10 10 10 10 10 11 11 11 10 10 10 10 10 9 9 9 9 8 8 8 7 7 7 7 7 7 8 8 8 9 9 9 10 10 10 10 11 10 9 8 6
12 11 10 10 9 9 8 6 6 6 7 6 7 9 9 8 7 6 6 6 4 2 1 2 3 4 4 3 2 2 3 3 3 3 3 3 3 3 3 3 3 3 3 3 3 3 3 3 3 3 4 4 4 5 5 6 6 7 7 8 9 9 10 10 10 11 11 11 10 10 10 10 10 10 9 9 9 9 8 8 8 7 7 7 7 7 8 8 8 8 8 8 8 9 10 10 10 10 10 9 8 6 5
11 10 10 10 10 10 9 7 8 8 7 7 8 10 12 10 9 8 8 7 4 1 -0 1 3 5 5 3 3 3 3 4 4 4 4 4 4 4 4 4 4 4 4 4 3 3 3 3 3 3 4 4 4 5 5 6 6 6 7 7 8 9 9 10 10 10 10 10 10 10 9 9 9 9 9 8 8 8 8 8 8 8 8 8 8 8 8 8 8 7 7 7 8 9 10 10 10 10 9 8 6 5 4
9 9 10 10 10 10 9 9 9 9 7 7 8 10 12 10 9 8 9 8 5 1 -0 2 3 5 5 3 3 3 4 4 4 4 4 4 5 5 4 4 4 4 4 4 4 4 3 3 4 4 4 4 5 5 6 6 7 7 7 7 8 8 8 9 9 9 9 9 9 9 9 8 8 8 8 8 8 8 8 8 8 8 8 8 8 8 8 7 7 6 6 7 8 9 10 10 10 9 8 6 5 4 4
7 8 9 9 10 10 9 9 9 8 6 7 8 8 7 8 8 8 8 7 5 2 2 3 4 5 4 4 4 4 4 4 5 5 5 5 6 6 6 6 6 5 5 5 4 4 4 4 4 4 5 5 6 6 7 7 8 8 8 8 8 8 8 8 8 8 8 8 8 8 8 8 8 8 8 8 8 8 8 8 8 8 9 8 8 8 7 6 6 5 6 6 7 8 9 9 9 7 6 5 4 4 4
6 7 8 8 9 9 9 9 9 8 8 8 7 7 6 7 6 6 8 7 4 2 3 6 6 5 4 4 4 5 5 5 6 6 6 6 6 6 7 7 7 7 6 6 5 5 5 5 5 5 6 6 7 7 8 9 9 9 9 8 8 8 7 7 7 7 7 7 7 7 7 7 8 8 8 8 8 8 8 8 8 8 8 8 7 6 6 5 5 5 5 6 6 7 8 8 7 6 5 4 3 3 3
5 6 7 7 8 8 8 7 8 9 9 8 8 7 6 6 5 5 8 6 3 2 5 7 6 5 4 5 6 6 7 7 7 7 6 6 6 6 7 7 8 8 7 6 6 6 6 6 5 6 6 7 8 8 9 10 10 9 9 8 8 8 7 7 7 7 7 7 7 7 7 7 7 7 7 7 7 7 7 8 7 7 7 6 6 5 4 4 4 4 5 5 6 7 7 7 6 5 4 3 3 3 3
5 5 6 6 6 6 6 6 7 8 8 7 7 7 6 6 5 5 4 4 4 4 6 7 6 5 5 6 7 8 8 7 7 6 6 5 5 5 6 7 8 8 7 6 6 6 7 6 6 6 7 8 9 10 10 10 10 10 9 8 8 8 7 7 7 7 7 7 7 7 7 7 7 7 7 7 7 7 7 7 6 6 5 5 4 4 3 3 4 4 5 5 6 6 6 6 6 5 4 4 3 3 3
6 4 4 4 4 4 4 4 6 6 6 6 5 5 5 6 5 3 2 4 5 5 4 5 6 5 6 7 8 8 7 6 5 5 5 4 4 5 6 7 7 6 5 5 4 5 5 5 5 5 6 7 9 10 11 11 10 9 9 8 8 7 7 7 7 7 7 7 7 7 7 7 7 7 6 6 6 6 6 6 5 5 4 4 3 3 3 3 4 4 5 5 6 6 6 6 5 4 4 4 4 4 4
14 8 5 4 2 2 2 3 4 4 4 4 3 3 3 4 4 3 2 3 4 4 4 6 6 7 10 8 7 6 5 4 4 4 4 4 5 6 7 7 6 5 4 3 3 2 2 2 2 2 4 5 7 10 11 10 10 9 8 8 8 8 8 8 7 7 7 8 8 8 8 7 7 6 6 6 6 6 6 5 4 4 3 2 2 2 3 3 4 4 5 5 6 6 6 5 5 4 4 3 3 4 4
26 20 13 8 5 2 1 1 1 2 2 3 3 3 2 3 3 3 2 2 2 2 6 10 11 13 16 13 8 5 3 3 3 3 3 4 5 7 9 9 8 6 4 3 3 2 2 0 -0 0 2 4 6 7 9 9 9 8 8 8 8 8 8 8 8 8 8 8 8 8 7 6 6 5 4 4 4 5 5 4 4 3 2 2 2 2 2 3 4 4 4 5 5 6 6 5 5 4 4 3 3 3 4
24 24 20 14 10 7 5 4 2 1 1 2 2 3 3 3 3 3 2 3 6 10 13 14 14 16 21 18 13 7 3 3 3 2 2 4 6 8 11 10 8 5 3 5 7 7 6 4 3 3 3 4 4 4 5 5 6 6 6 7 8 8 8 8 8 8 8 8 8 7 6 5 4 3 3 3 3 3 3 3 3 3 2 2 2 2 3 3 3 4 4 5 5 5 6 5 5 4 4 3 3 3 3
12 19 24 23 19 15 13 12 9 7 4 3 2 3 4 4 3 2 1 6 13 20 22 19 16 15 18 18 14 8 4 3 2 2 2 3 6 9 12 10 4 -0 1 8 12 14 14 14 13 12 10 7 4 2 1 1 1 2 4 5 6 7 7 7 8 8 8 7 7 6 5 4 3 2 1 2 2 2 3 3 3 3 3 3 3 3 4 4 4 4 4 5 5 5 5 5 5 4 4 3 3 3 3
7 16 29 35 33 26 18 17 16 15 13 10 6 4 4 4 3 3 2 4 7 11 16 14 11 9 9 10 9 7 5 4 3 2 3 6 8 10 11 7 -1 -6 1 12 18 20 19 18 21 24 24 17 10 4 1 -1 -1 -0 1 3 4 5 6 6 7 7 7 7 6 5 4 3 2 1 1 2 2 3 3 3 3 4 4 4 4 4 5 5 5 5 5 5 5 5 5 4 4 3 3 3 2 2 3
5 11 23 38 40 34 21 18 18 19 19 17 14 10 7 6 7 8 10 3 -7 -14 -12 -7 -5 -4 -4 -2 0 3 5 6 5 5 5 8 11 12 10 -2 -8 -6 5 20 29 32 28 25 24 27 32 26 19 12 6 2 1 0 1 2 3 4 5 5 6 6 6 6 6 4 3 2 2 2 3 4 4 5 5 5 5 5 5 5 5 5 5 5 5 5 5 5 5 4 4 3 3 2 2 2 2 3 3
4 4 8 26 38 39 26 16 15 18 22 22 21 18 14 13 15 18 21 13 -2 -17 -24 -18 -13 -12 -14 -11 -6 1 7 8 7 7 8 9 10 11 9 -2 -4 2 11 26 35 39 38 32 24 16 12 19 21 19 13 7 4 3 3 3 4 4 4 4 4 5 5 5 5 4 3 3 3 4 5 6 6 7 7 7 7 6 5 5 4 4 4 4 4 4 4 4 4 4 4 3 2 2 2 2 3 4 5
4 -1 -7 4 22 36 36 23 17 18 23 26 26 24 21 19 19 20 23 22 16 6 -5 -6 -4 -3 -7 -2 4 8 9 9 9 9 9 9 9 8 8 5 3 5 13 21 21 17 17 14 6 0 -1 9 17 20 17 11 7 5 4 4 4 4 4 4 4 4 4 4 4 4 4 4 4 5 6 7 7 8 8 8 7 6 5 4 4 4 4 4 4 4 4 4 4 4 3 3 3 2 3 4 5 7 8
5 -0 -10 -17 -5 16 35 32 26 21 21 24 26 27 28 28 25 20 15 16 18 18 14 8 6 7 9 8 8 8 8 9 10 8 4 8 11 11 4 3 0 1 11 17 8 -6 -16 -15 -12 -5 4 12 17 19 17 13 9 7 6 5 4 4 3 4 4 5 5 5 5 5 5 5 5 6 6 7 7 7 7 7 6 5 4 4 4 4 4 5 5 5 5 5 5 5 4 4 4 5 5 7 9 10 11
5 2 -2 -16 -22 -16 7 20 24 23 19 16 14 12 13 25 35 38 30 15 8 5 7 8 11 14 14 10 9 8 7 8 8 6 2 7 16 20 13 7 4 5 13 18 7 -8 -18 -13 -3 7 15 18 18 18 16 15 13 10 8 6 5 5 5 6 7 7 7 7 7 7 7 7 7 7 7 7 7 6 6 5 5 5 5 5 5 5 6 6 7 7 7 7 7 7 7 7 8 8 10 11 12 13 13
5 4 3 -3 -16 -27 -26 -10 3 12 16 11 4 -4 -10 -1 21 43 54 42 28 17 10 7 5 4 6 7 8 9 9 9 9 8 6 10 18 24 28 25 23 22 23 22 16 9 6 12 18 20 20 16 15 13 12 11 10 10 11 12 12 12 12 11 10 9 9 9 10 9 9 9 9 8 8 7 7 6 6 6 6 6 6 6 6 7 7 8 9 10 10 11 11 11 12 12 12 13 13 14 14 14 12
4 4 5 7 2 -10 -27 -29 -23 -13 -3 -0 -3 -9 -17 -15 -1 20 42 46 42 36 30 24 15 8 4 6 10 14 16 18 18 16 13 14 20 28 35 35 34 32 31 31 31 30 28 23 18 13 9 8 7 7 5 5 10 16 21 22 22 20 16 12 9 7 8 9 10 10 10 9 9 9 8 8 7 7 7 6 6 6 6 6 6 7 8 9 10 11 12 13 14 14 15 14 14 14 14 14 14 13 11
6 4 3 7 11 10 -1 -16 -24 -25 -20 -16 -15 -16 -20 -19 -13 -2 15 26 31 33 34 36 35 30 20 16 18 24 31 35 36 33 28 25 27 30 33 29 26 24 23 23 24 23 18 7 4 4 6 7 8 6 4 3 3 4 8 13 15 14 10 6 4 4 5 7 8 8 9 8 8 8 8 7 7 7 7 7 6 6 6 6 7 7 8 9 10 11 12 13 14 15 15 15 15 14 14 13 12 11 9
7 5 2 4 9 15 20 10 -2 -13 -19 -21 -21 -21 -19 -17 -14 -9 -4 8 20 30 33 34 38 42 40 30 27 30 38 41 42 42 41 39 36 33 27 18 12 10 10 11 10 7 3 3 9 16 22 23 21 18 14 10 5 -1 -5 -4 -3 -1 -1 -1 0 2 4 6 7 7 8 8 7 7 7 6 6 6 6 6 7 7 7 8 8 9 9 10 10 10 11 12 12 13 14 14 14 13 13 12 11 10 8
6 6 3 2 5 11 20 23 19 10 -1 -8 -13 -16 -15 -12 -10 -7 -7 -4 6 20 34 32 31 31 33 29 25 21 20 23 26 30 32 33 32 30 24 14 8 5 5 6 5 4 4 6 10 13 14 17 22 24 23 21 17 12 6 1 -3 -5 -5 -3 0 3 5 6 7 8 8 8 7 7 6 6 6 6 7 7 8 8 9 10 10 11 10 10 9 8 8 8 8 9 10 10 11 11 12 11 11 10 9
5 5 4 2 2 4 10 18 23 23 18 10 3 -2 -6 -6 -4 -2 1 -2 -4 0 14 23 23 19 16 18 16 11 5 5 7 9 9 13 16 18 18 11 7 5 3 2 1 1 1 -0 -1 -2 -1 1 5 11 16 19 20 20 18 15 11 7 4 4 4 5 6 7 8 9 9 8 8 7 7 7 7 7 7 8 9 10 10 11 11 11 10 9 8 7 7 6 6 6 5 6 6 7 8 9 10 10 10
Height
5877 5878 5879 5879 5879 5880 5880 5881 5882 5882 5883 5884 5885 5885 5886 5887 5887 5887 5888 5888 5888 5889 5889 5889 5890 5890 5890 5890 5891 5891 5891 5892 5892 5892 5893 5893 5894 5894 5894 5894 5894 5894 5895 5895 5895 5895 5895 5895 5896 5896 5896 5896 5896 5896 5896 5896 5896 5896 5896 5896 5896 5896 5896 5896 5896 5896 5896 5896 5896 5896 5896 5896 5896 5896 5896 5896 5896 5896 5895 5895 5895 5895 5895 5895 5895 5895 5895 5895 5895 5895 5895 5895 5895 5895 5895 5895 5895 5894 5894 5894 5894 5894 5893
5877 5878 5878 5878 5878 5878 5879 5880 5881 5881 5882 5882 5883 5884 5885 5886 5886 5887 5887 5887 5887 5888 5888 5888 5889 5889 5889 5889 5890 5890 5890 5891 5891 5892 5892 5892 5892 5893 5893 5893 5893 5894 5894 5894 5894 5894 5894 5894 5895 5895 5895 5895 5895 5895 5895 5895 5895 5895 5895 5895 5895 5895 5895 5895 5895 5895 5895 5895 5895 5894 5894 5894 5894 5894 5895 5895 5894 5894 5894 5894 5894 5894 5894 5894 5894 5894 5894 5894 5894 5894 5894 5894 5894 5894 5894 5893 5893 5893 5893 5893 5893 5892 5892
5875 5876 5876 5877 5877 5877 5878 5879 5879 5880 5881 5881 5882 5883 5884 5884 5885 5886 5886 5886 5887 5887 5887 5887 5888 5888 5888 5888 5889 5889 5889 5889 5890 5890 5891 5891 5892 5892 5892 5892 5892 5893 5893 5893 5893 5893 5893 5894 5894 5894 5894 5894 5894 5894 5894 5894 5894 5894 5894 5894 5894 5894 5894 5894 5894 5894 5894 5893 5893 5893 5893 5893 5893 5893 5893 5893 5893 5893 5893 5893 5893 5893 5893 5893 5893 5892 5892 5893 5893 5893 5893 5892 5892 5892 5892 5892 5892 5892 5892 5892 5891 5891 5891
5872 5873 5875 5875 5876 5876 5877 5877 5878 5878 5879 5880 5881 5882 5882 5883 5884 5884 5885 5885 5886 5886 5886 5887 5887 5887 5887 5887 5887 5888 5888 5888 5889 5889 5890 5890 5891 5891 5891 5891 5892 5892 5892 5892 5892 5892 5893 5893 5893 5893 5893 5893 5893 5893 5893 5893 5893 5893 5893 5893 5893 5893 5893 5893 5893 5893 5893 5892 5892 5892 5892 5892 5892 5892 5892 5892 5892 5892 5892 5892 5892 5892 5892 5892 5892 5892 5892 5892 5892 5892 5892 5891 5891 5891 5891 5891 5891 5891 5890 5890 5890 5890 5890
5871 5872 5873 5873 5874 5875 5875 5876 5877 5877 5878 5878 5879 5880 5881 5882 5882 5883 5884 5884 5884 5885 5885 5885 5886 5886 5886 5887 5887 5887 5887 5887 5888 5888 5889 5889 5889 5890 5890 5890 5891 5891 5891 5891 5892 5892 5892 5892 5892 5892 5892 5892 5892 5892 5892 5892 5892 5892 5892 5892 5892 5892 5892 5892 5892 5892 5892 5892 5892 5892 5891 5891 5891 5891 5891 5892 5892 5892 5891 5891 5891 5891 5891 5890 5890 5890 5890 5892 5891 5890 5890 5890 5890 5890 5890 5890 5889 5889 5889 5889 5889 5888 5888
5869 5870 5871 5872 5872 5873 5874 5875 5875 5876 5877 5877 5878 5879 5879 5880 5881 5882 5882 5883 5883 5884 5884 5884 5885 5885 5885 5885 5886 5886 5886 5886 5887 5887 5887 5888 5888 5889 5889 5889 5889 5890 5890 5890 5890 5891 5891 5891 5891 5891 5891 5891 5891 5891 5891 5891 5891 5891 5891 5891 5891 5891 5891 5891 5891 5891 5891 5891 5890 5890 5890 5890 5890 5890 5890 5891 5891 5891 5891 5890 5890 5890 5890 5889 5889 5889 5889 5891 5890 5889 5889 5889 5889 5888 5888 5888 5888 5888 5888 5887 5887 5887 5887
5867 5868 5869 5870 5871 5872 5872 5873 5874 5874 5875 5876 5877 5877 5878 5879 5880 5880 5881 5882 5882 5882 5883 5883 5883 5884 5884 5884 5884 5885 5885 5885 5885 5886 5886 5887 5887 5887 5888 5888 5888 5889 5889 5889 5889 5889 5890 5890 5890 5890 5890 5890 5890 5890 5890 5890 5890 5890 5890 5890 5890 5890 5890 5890 5890 5890 5890 5889 5889 5889 5889 5889 5889 5889 5889 5890 5889 5889 5889 5889 5889 5889 5888 5888 5888 5888 5888 5888 5888 5888 5888 5887 5887 5887 5887 5887 5887 5887 5886 5886 5886 5886 5886
5866 5866 5867 5868 5869 5870 5871 5871 5872 5873 5873 5874 5875 5876 5877 5877 5878 5879 5880 5880 5881 5881 5882 5882 5882 5882 5883 5883 5883 5883 5883 5884 5884 5884 5885 5885 5886 5886 5887 5887 5887 5887 5888 5888 5888 5888 5888 5888 5888 5889 5889 5889 5889 5889 5889 5889 5889 5889 5889 5889 5889 5889 5889 5889 5889 5889 5888 5888 5888 5888 5888 5888 5888 5888 5888 5888 5888 5888 5888 5888 5888 5887 5887 5887 5887 5887 5887 5887 5887 5887 5886 5886 5886 5886 5886 5886 5885 5885 5885 5885 5885 5884 5884
5864 5865 5865 5866 5867 5868 5869 5870 5870 5871 5872 5872 5873 5874 5875 5876 5877 5877 5878 5879 5879 5880 5880 5881 5881 5881 5882 5882 5882 5882 5882 5882 5883 5883 5883 5884 5884 5885 5885 5886 5886 5886 5887 5887 5887 5887 5887 5887 5887 5887 5887 5887 5887 5887 5887 5888 5888 5888 5888 5888 5888 5887 5887 5887 5887 5887 5887 5887 5887 5887 5887 5887 5887 5887 5887 5887 5887 5887 5887 5887 5887 5887 5886 5886 5886 5886 5886 5886 5885 5885 5885 5885 5885 5885 5884 5884 5884 5884 5884 5883 5883 5883 5883
5862 5863 5864 5864 5865 5866 5867 5868 5868 5869 5870 5871 5872 5872 5873 5874 5875 5876 5876 5877 5877 5878 5878 5879 5879 5880 5880 5881 5881 5881 5881 5881 5881 5882 5882 5882 5883 5883 5884 5884 5885 5885 5885 5886 5886 5886 5886 5886 5886 5886 5886 5886 5886 5886 5886 5887 5887 5887 5887 5887 5886 5886 5886 5886 5886 5886 5885 5886 5886 5886 5886 5886 5886 5886 5886 5886 5886 5886 5886 5886 5885 5885 5885 5885 5885 5885 5884 5884 5884 5884 5884 5884 5883 5883 5883 5883 5883 5883 5882 5882 5882 5882 5882
5860 5861 5862 5862 5863 5864 5865 5866 5867 5867 5868 5869 5870 5870 5871 5872 5873 5874 5874 5875 5876 5876 5877 5877 5878 5878 5879 5879 5879 5880 5880 5880 5880 5880 5881 5881 5881 5882 5882 5882 5883 5883 5884 5884 5884 5884 5884 5885 5885 5885 5885 5885 5885 5885 5885 5885 5885 5885 5885 5885 5885 5885 5885 5885 5885 5885 5885 5885 5885 5884 5884 5884 5884 5884 5884 5884 5884 5884 5884 5884 5884 5884 5884 5884 5883 5883 5883 5883 5883 5883 5882 5882 5882 5882 5882 5882 5882 5882 5881 5881 5881 5881 5880
5858 5859 5860 5861 5862 5862 5863 5864 5865 5866 5866 5867 5868 5868 5869 5870 5871 5872 5872 5873 5874 5874 5875 5876 5876 5877 5877 5877 5878 5878 5878 5878 5878 5878 5879 5879 5880 5880 5881 5881 5881 5882 5882 5882 5883 5883 5883 5883 5883 5883 5883 5883 5883 5884 5884 5884 5884 5884 5884 5884 5883 5883 5883 5884 5883 5883 5883 5883 5883 5883 5883 5883 5883 5883 5883 5883 5883 5883 5883 5883 5883 5883 5882 5882 5882 5882 5882 5882 5882 5882 5881 5881 5881 5881 5881 5881 5880 5880 5880 5880 5880 5879 5879
5857 5857 5858 5859 5860 5861 5862 5862 5863 5864 5864 5865 5866 5867 5867 5868 5869 5870 5871 5871 5872 5872 5873 5874 5874 5875 5875 5876 5876 5876 5877 5877 5877 5877 5877 5877 5878 5878 5879 5879 5880 5880 5880 5881 5881 5881 5881 5882 5882 5882 5882 5882 5882 5882 5882 5882 5882 5882 5882 5882 5882 5882 5882 5882 5882 5882 5882 5882 5882 5882 5882 5882 5882 5882 5882 5882 5882 5882 5882 5882 5882 5882 5881 5881 5881 5881 5881 5881 5881 5880 5880 5880 5880 5880 5880 5879 5879 5879 5879 5879 5878 5878 5878
5855 5856 5857 5857 5858 5859 5860 5860 5861 5862 5862 5863 5864 5865 5865 5866 5867 5868 5868 5869 5870 5871 5871 5872 5872 5873 5873 5874 5874 5875 5875 5875 5875 5875 5876 5876 5876 5877 5877 5877 5877 5878 5878 5879 5879 5879 5880 5880 5880 5880 5880 5880 5881 5881 5881 5881 5881 5881 5881 5881 5881 5881 5881 5881 5881 5881 5881 5881 5881 5881 5880 5880 5880 5880 5880 5880 5880 5880 5880 5880 5880 5880 5880 5880 5880 5880 5879 5879 5879 5879 5879 5879 5879 5878 5878 5878 5878 5878 5877 5877 5877 5877 5877
5853 5854 5855 5856 5856 5857 5858 5859 5859 5860 5861 5861 5862 5863 5863 5864 5865 5866 5866 5867 5868 5868 5869 5870 5870 5871 5871 5872 5872 5873 5873 5873 5873 5873 5874 5874 5874 5875 5875 5875 5876 5876 5877 5877 5877 5877 5878 5878 5878 5878 5879 5879 5879 5879 5879 5879 5879 5879 5879 5879 5879 5879 5879 5879 5879 5879 5879 5879 5879 5879 5879 5879 5879 5879 5879 5879 5879 5879 5879 5879 5879 5879 5879 5878 5878 5878 5878 5878 5878 5878 5877 5877 5877 5877 5877 5877 5877 5877 5876 5876 5876 5876 5875
5852 5852 5853 5854 5855 5855 5856 5857 5857 5858 5859 5859 5860 5861 5861 5862 5863 5863 5864 5865 5865 5866 5867 5867 5868 5868 5869 5870 5870 5871 5871 5872 5872 5872 5872 5872 5872 5873 5873 5873 5874 5874 5874 5875 5875 5876 5876 5876 5877 5877 5877 5877 5877 5877 5877 5877 5877 5877 5877 5878 5878 5878 5878 5878 5878 5878 5878 5878 5878 5878 5878 5878 5877 5877 5877 5877 5877 5877 5877 5877 5877 5877 5877 5877 5877 5877 5877 5877 5877 5876 5876 5876 5876 5876 5876 5876 5875 5875 5875 5875 5875 5874 5874
5850 5851 5852 5852 5853 5854 5854 5855 5856 5857 5857 5857 5858 5859 5859 5860 5861 5861 5862 5862 5863 5864 5864 5865 5866 5866 5867 5867 5868 5868 5869 5870 5870 5870 5870 5870 5871 5871 5871 5872 5872 5872 5872 5873 5873 5873 5874 5874 5875 5875 5875 5875 5876 5876 5876 5876 5876 5876 5876 5876 5876 5876 5876 5876 5876 5877 5877 5877 5877 5877 5876 5876 5876 5876 5876 5876 5876 5876 5876 5876 5876 5876 5876 5876 5876 5876 5875 5875 5875 5875 5875 5875 5875 5874 5874 5874 5874 5874 5873 5873 5873 5873 5872
5848 5849 5850 5851 5851 5852 5852 5853 5854 5855 5855 5856 5856 5857 5857 5858 5858 5859 5860 5860 5861 5862 5862 5863 5863 5864 5864 5865 5866 5866 5867 5867 5868 5868 5868 5868 5869 5869 5869 5870 5870 5870 5871 5871 5871 5872 5872 5872 5872 5873 5873 5873 5874 5874 5874 5874 5874 5874 5874 5875 5875 5875 5875 5875 5875 5875 5875 5875 5875 5875 5875 5875 5875 5875 5875 5875 5875 5875 5875 5875 5874 5874 5874 5874 5874 5874 5874 5874 5874 5873 5873 5873 5873 5873 5873 5873 5872 5872 5872 5872 5872 5871 5871
5846 5847 5848 5849 5849 5850 5851 5852 5852 5853 5853 5854 5854 5855 5855 5856 5857 5857 5857 5858 5859 5859 5860 5860 5861 5861 5862 5862 5863 5864 5865 5865 5866 5866 5866 5867 5867 5867 5867 5868 5868 5868 5869 5869 5869 5870 5870 5870 5871 5871 5871 5872 5872 5872 5872 5872 5872 5872 5873 5873 5873 5873 5873 5873 5873 5873 5873 5873 5873 5873 5873 5873 5873 5873 5873 5873 5873 5873 5873 5873 5873 5873 5873 5873 5872 5872 5872 5872 5872 5872 5872 5872 5872 5872 5871 5871 5871 5871 5870 5870 5870 5870 5869
5845 5846 5846 5847 5847 5848 5849 5850 5850 5851 5851 5852 5852 5853 5853 5854 5854 5855 5855 5856 5857 5857 5857 5858 5858 5859 5859 5860 5861 5861 5862 5863 5863 5864 5864 5864 5865 5865 5865 5866 5866 5867 5867 5867 5867 5868 5868 5868 5869 5869 5869 5869 5870 5870 5870 5870 5871 5871 5871 5871 5871 5871 5872 5872 5872 5872 5872 5872 5872 5872 5872 5872 5872 5872 5872 5872 5872 5872 5872 5872 5871 5871 5871 5871 5871 5871 5871 5871 5871 5870 5870 5870 5870 5870 5870 5869 5869 5869 5869 5868 5868 5868 5867
5843 5844 5845 5845 5846 5846 5847 5848 5848 5849 5850 5850 5851 5851 5852 5852 5852 5853 5853 5854 5854 5855 5856 5856 5856 5857 5857 5858 5858 5859 5860 5860 5861 5861 5862 5862 5862 5863 5863 5864 5864 5865 5865 5865 5866 5866 5866 5867 5867 5867 5867 5867 5868 5868 5868 5868 5869 5869 5869 5869 5869 5870 5870 5870 5870 5870 5870 5870 5870 5870 5870 5870 5870 5870 5870 5870 5870 5870 5870 5870 5870 5870 5869 5869 5869 5869 5869 5869 5869 5869 5868 5868 5868 5868 5868 5868 5867 5867 5867 5867 5866 5866 5866
5841 5842 5843 5843 5844 5845 5845 5846 5847 5847 5848 5848 5849 5849 5850 5850 5851 5851 5852 5852 5852 5853 5853 5854 5854 5855 5855 5856 5856 5857 5857 5858 5858 5859 5859 5860 5860 5861 5861 5862 5862 5862 5863 5863 5863 5864 5864 5865 5865 5865 5865 5866 5866 5866 5866 5867 5867 5867 5867 5867 5868 5868 5868 5868 5868 5868 5868 5868 5868 5868 5868 5868 5868 5868 5868 5868 5868 5868 5868 5868 5868 5868 5868 5867 5867 5867 5867 5867 5867 5867 5867 5867 5866 5866 5866 5866 5866 5865 5865 5865 5864 5864 5864
5839 5840 5841 5841 5842 5842 5843 5844 5845 5845 5846 5846 5847 5847 5848 5848 5849 5849 5850 5850 5851 5851 5852 5852 5852 5853 5853 5854 5854 5855 5855 5856 5856 5857 5857 5857 5858 5858 5859 5859 5860 5860 5861 5861 5861 5862 5862 5862 5863 5863 5863 5864 5864 5864 5864 5865 5865 5865 5865 5866 5866 5866 5866 5866 5866 5866 5866 5866 5866 5867 5866 5866 5867 5867 5867 5866 5866 5866 5866 5866 5866 5866 5866 5866 5866 5866 5866 5865 5865 5865 5865 5865 5864 5864 5864 5864 5864 5863 5863 5863 5862 5862 5862
5837 5838 5838 5839 5840 5841 5842 5842 5843 5843 5844 5844 5845 5845 5846 5846 5847 5847 5847 5848 5848 5849 5849 5850 5850 5851 5852 5852 5852 5852 5853 5853 5854 5854 5855 5855 5856 5856 5857 5857 5857 5858 5858 5859 5859 5859 5860 5860 5861 5861 5861 5862 5862 5862 5862 5863 5863 5863 5863 5864 5864 5864 5864 5864 5864 5864 5865 5864 5864 5865 5864 5864 5864 5864 5864 5864 5864 5864 5864 5864 5864 5864 5864 5864 5864 5864 5863 5863 5863 5863 5863 5863 5862 5862 5862 5862 5862 5861 5861 5861 5861 5860 5860
5835 5837 5837 5837 5838 5839 5840 5840 5841 5842 5842 5842 5843 5843 5844 5844 5845 5845 5846 5846 5847 5847 5847 5848 5848 5849 5849 5850 5850 5851 5851 5851 5852 5852 5852 5853 5853 5854 5854 5854 5855 5855 5856 5856 5857 5857 5857 5858 5858 5859 5859 5859 5860 5860 5861 5861 5861 5861 5862 5862 5862 5862 5862 5862 5862 5862 5862 5862 5862 5863 5862 5862 5862 5862 5862 5862 5862 5862 5862 5862 5862 5862 5862 5862 5862 5862 5862 5861 5861 5861 5861 5861 5860 5860 5860 5860 5859 5859 5859 5859 5858 5858 5858
5833 5835 5835 5835 5836 5837 5837 5838 5839 5839 5840 5841 5841 5842 5842 5842 5843 5843 5844 5844 5844 5845 5845 5846 5847 5847 5847 5848 5848 5848 5849 5849 5849 5850 5850 5851 5851 5851 5852 5852 5852 5853 5853 5854 5854 5855 5855 5855 5856 5856 5857 5857 5857 5858 5858 5859 5859 5859 5859 5860 5860 5860 5860 5860 5861 5861 5861 5861 5861 5861 5861 5861 5861 5861 5861 5860 5860 5860 5860 5860 5860 5860 5860 5860 5860 5859 5859 5859 5859 5859 5859 5858 5858 5858 5858 5857 5857 5857 5857 5857 5856 5856 5856
5831 5831 5832 5833 5834 5835 5835 5836 5837 5837 5838 5839 5839 5840 5840 5840 5841 5842 5842 5842 5842 5843 5843 5844 5844 5845 5845 5846 5846 5846 5847 5847 5847 5848 5848 5848 5849 5849 5849 5850 5850 5851 5851 5851 5852 5852 5852 5853 5853 5854 5854 5855 5855 5856 5856 5856 5857 5857 5857 5857 5858 5858 5858 5858 5858 5858 5858 5859 5858 5858 5858 5858 5858 5858 5858 5858 5858 5858 5858 5858 5858 5858 5857 5857 5857 5857 5857 5857 5857 5857 5856 5856 5856 5856 5856 5855 5855 5855 5855 5854 5854 5854 5853
5828 5829 5830 5831 5832 5833 5834 5834 5835 5835 5836 5837 5837 5838 5838 5838 5839 5839 5840 5840 5840 5841 5841 5842 5842 5843 5843 5844 5844 5844 5845 5845 5845 5846 5846 5846 5847 5847 5847 5847 5848 5848 5848 5849 5849 5850 5850 5850 5851 5851 5852 5852 5852 5853 5853 5854 5854 5855 5855 5855 5855 5856 5856 5856 5856 5856 5857 5857 5857 5857 5857 5856 5856 5856 5856 5856 5856 5856 5856 5856 5856 5856 5855 5855 5855 5855 5855 5854 5854 5854 5854 5854 5854 5853 5853 5853 5853 5852 5852 5852 5852 5851 5851
5826 5827 5828 5829 5830 5831 5831 5832 5833 5833 5834 5834 5835 5836 5836 5837 5837 5837 5838 5838 5838 5838 5839 5839 5840 5841 5841 5842 5842 5842 5842 5843 5843 5843 5844 5844 5844 5844 5845 5845 5845 5846 5846 5847 5847 5847 5847 5848 5848 5849 5849 5850 5850 5851 5851 5852 5852 5852 5852 5853 5853 5853 5853 5854 5854 5854 5854 5854 5854 5854 5854 5854 5854 5854 5854 5854 5854 5854 5853 5853 5853 5853 5853 5853 5852 5852 5852 5852 5852 5852 5852 5852 5851 5851 5851 5851 5850 5850 5850 5849 5849 5849 5849
5823 5825 5826 5827 5828 5828 5829 5830 5830 5831 5832 5833 5834 5835 5834 5835 5835 5835 5836 5836 5836 5836 5837 5837 5838 5838 5839 5839 5840 5840 5840 5841 5841 5841 5842 5842 5842 5842 5842 5843 5843 5843 5844 5844 5844 5845 5845 5846 5846 5846 5847 5847 5847 5848 5848 5849 5849 5850 5850 5850 5851 5851 5851 5851 5852 5852 5852 5852 5852 5852 5852 5852 5852 5852 5851 5851 5851 5851 5851 5851 5851 5851 5851 5850 5850 5850 5850 5850 5849 5849 5849 5849 5849 5849 5848 5848 5848 5847 5847 5847 5847 5847 5846
5821 5822 5823 5824 5825 5826 5827 5827 5828 5829 5830 5831 5832 5832 5833 5833 5833 5833 5833 5834 5834 5834 5835 5835 5836 5836 5837 5837 5837 5838 5838 5839 5839 5839 5839 5840 5840 5840 5840 5840 5841 5841 5841 5842 5842 5842 5843 5843 5843 5844 5844 5845 5845 5846 5846 5846 5847 5847 5847 5848 5848 5848 5848 5849 5849 5849 5849 5849 5849 5849 5849 5849 5849 5849 5849 5849 5849 5849 5849 5848 5848 5848 5848 5848 5848 5847 5847 5847 5847 5847 5847 5847 5847 5846 5846 5846 5845 5845 5845 5844 5844 5844 5844
5819 5820 5821 5822 5823 5824 5826 5825 5825 5826 5827 5828 5830 5831 5831 5832 5831 5831 5831 5832 5832 5832 5832 5833 5833 5834 5834 5835 5835 5836 5836 5837 5837 5837 5837 5837 5838 5838 5838 5838 5838 5839 5839 5839 5840 5840 5841 5841 5841 5842 5842 5842 5843 5843 5843 5844 5844 5845 5845 5845 5846 5846 5846 5846 5846 5846 5847 5847 5847 5847 5847 5847 5847 5847 5847 5847 5847 5846 5846 5846 5846 5846 5846 5846 5845 5845 5845 5845 5845 5845 5844 5844 5844 5844 5843 5843 5843 5842 5842 5842 5842 5842 5841
5816 5817 5818 5819 5820 5822 5823 5824 5824 5824 5825 5826 5827 5827 5829 5829 5828 5828 5829 5830 5830 5830 5831 5831 5831 5832 5832 5833 5833 5834 5834 5834 5835 5835 5835 5835 5835 5836 5836 5836 5836 5836 5837 5837 5837 5838 5838 5839 5839 5839 5840 5840 5840 5841 5841 5842 5842 5842 5842 5843 5843 5843 5843 5843 5843 5844 5844 5844 5844 5844 5844 5844 5844 5844 5844 5844 5844 5844 5844 5844 5843 5843 5843 5843 5843 5843 5843 5842 5842 5842 5842 5842 5842 5841 5841 5841 5840 5840 5840 5839 5839 5839 5839
5813 5815 5816 5817 5818 5819 5820 5821 5822 5822 5823 5823 5824 5824 5825 5825 5826 5826 5827 5828 5828 5828 5828 5828 5829 5830 5830 5831 5831 5832 5832 5832 5832 5832 5832 5833 5833 5833 5833 5833 5834 5834 5834 5835 5835 5835 5836 5836 5837 5837 5837 5838 5838 5838 5839 5839 5840 5840 5840 5840 5840 5841 5841 5841 5841 5841 5841 5842 5842 5842 5842 5842 5842 5842 5842 5842 5842 5842 5841 5841 5841 5841 5841 5841 5841 5840 5840 5840 5840 5840 5840 5839 5839 5839 5839 5838 5838 5837 5837 5837 5837 5837 5836
5811 5812 5813 5814 5816 5817 5817 5818 5819 5820 5821 5821 5822 5822 5823 5823 5824 5824 5825 5826 5826 5827 5827 5826 5826 5827 5828 5828 5829 5829 5829 5830 5830 5830 5830 5830 5830 5831 5831 5831 5831 5832 5832 5832 5833 5833 5834 5834 5835 5835 5835 5836 5836 5836 5837 5837 5837 5837 5837 5838 5838 5838 5838 5838 5838 5838 5839 5839 5839 5839 5839 5839 5839 5839 5839 5839 5839 5839 5839 5839 5839 5838 5838 5838 5838 5838 5838 5838 5837 5837 5837 5837 5837 5837 5836 5836 5835 5835 5835 5835 5834 5834 5834
5808 5810 5811 5813 5813 5814 5815 5816 5817 5817 5818 5819 5819 5820 5821 5821 5822 5822 5823 5824 5824 5823 5824 5824 5824 5824 5825 5826 5827 5827 5827 5827 5827 5827 5828 5828 5828 5828 5828 5828 5829 5829 5830 5830 5831 5831 5832 5832 5832 5833 5833 5833 5834 5834 5834 5834 5835 5835 5835 5835 5836 5836 5836 5836 5836 5836 5836 5836 5837 5837 5837 5837 5837 5837 5837 5837 5837 5837 5837 5836 5836 5836 5836 5836 5836 5836 5835 5835 5835 5835 5835 5835 5835 5834 5834 5833 5833 5832 5832 5832 5832 5832 5832
5805 5807 5808 5810 5811 5811 5812 5813 5814 5815 5816 5816 5817 5817 5818 5819 5819 5821 5822 5822 5822 5822 5822 5822 5822 5822 5823 5824 5824 5824 5825 5825 5825 5825 5825 5825 5826 5826 5826 5826 5827 5827 5827 5828 5828 5829 5829 5830 5830 5831 5831 5831 5832 5832 5832 5832 5832 5832 5832 5833 5833 5833 5833 5833 5833 5833 5833 5834 5834 5834 5834 5834 5834 5834 5834 5834 5834 5834 5834 5834 5834 5834 5834 5833 5833 5833 5833 5833 5833 5832 5832 5832 5832 5833 5832 5831 5831 5830 5830 5830 5830 5829 5829
5802 5804 5805 5807 5808 5809 5810 5811 5812 5813 5814 5814 5815 5815 5815 5816 5817 5818 5821 5820 5819 5820 5821 5820 5820 5820 5821 5821 5822 5822 5822 5822 5822 5822 5822 5823 5823 5823 5823 5824 5824 5825 5825 5826 5826 5827 5827 5828 5828 5828 5829 5829 5829 5829 5829 5830 5830 5830 5830 5830 5830 5831 5831 5831 5831 5831 5831 5831 5831 5831 5831 5831 5832 5832 5832 5832 5832 5832 5832 5832 5832 5831 5831 5831 5831 5831 5831 5831 5830 5830 5830 5830 5829 5829 5830 5830 5829 5828 5828 5827 5827 5827 5827
5799 5801 5802 5803 5805 5806 5807 5808 5809 5810 5811 5813 5814 5813 5813 5813 5814 5816 5817 5817 5817 5817 5818 5818 5818 5818 5818 5818 5819 5819 5819 5819 5820 5820 5820 5820 5821 5821 5821 5822 5822 5822 5823 5823 5824 5825 5825 5826 5826 5826 5827 5827 5827 5827 5827 5827 5827 5827 5827 5827 5828 5828 5828 5828 5828 5828 5828 5828 5828 5829 5829 5829 5829 5829 5829 5829 5829 5829 5829 5829 5829 5829 5829 5829 5828 5828 5828 5828 5828 5827 5827 5827 5827 5827 5826 5827 5827 5827 5827 5826 5825 5825 5824
5797 5798 5799 5801 5802 5803 5805 5806 5806 5807 5808 5812 5813 5812 5812 5811 5811 5812 5813 5814 5814 5815 5815 5815 5815 5816 5816 5816 5816 5816 5817 5817 5817 5817 5817 5818 5818 5819 5819 5820 5820 5820 5821 5822 5822 5822 5823 5823 5824 5824 5824 5825 5825 5825 5825 5825 5825 5825 5825 5825 5825 5825 5825 5826 5826 5826 5826 5826 5826 5826 5826 5826 5826 5826 5827 5827 5827 5827 5827 5827 5827 5826 5826 5826 5826 5826 5826 5826 5825 5825 5825 5825 5825 5824 5824 5824 5824 5824 5824 5824 5824 5824 5822
5794 5796 5797 5798 5799 5801 5802 5803 5803 5803 5805 5809 5810 5809 5809 5809 5809 5810 5811 5811 5812 5813 5814 5813 5813 5812 5813 5813 5813 5814 5814 5814 5815 5815 5815 5816 5816 5816 5817 5817 5818 5818 5819 5819 5820 5820 5821 5821 5822 5822 5822 5822 5822 5822 5822 5822 5822 5822 5822 5822 5822 5822 5823 5823 5823 5823 5823 5823 5824 5824 5824 5824 5824 5824 5824 5824 5824 5824 5824 5824 5824 5824 5824 5824 5823 5823 5823 5823 5823 5823 5822 5822 5822 5822 5822 5822 5821 5821 5821 5821 5822 5822 5821
5792 5793 5794 5796 5797 5798 5800 5800 5800 5801 5802 5804 5805 5805 5807 5807 5807 5807 5808 5808 5810 5811 5813 5812 5810 5810 5810 5811 5811 5812 5812 5812 5812 5813 5813 5813 5814 5814 5815 5815 5816 5816 5817 5817 5818 5818 5819 5819 5819 5820 5820 5820 5820 5820 5820 5820 5820 5819 5820 5820 5820 5820 5820 5820 5820 5821 5821 5821 5821 5821 5821 5822 5822 5822 5822 5822 5822 5822 5822 5822 5822 5821 5821 5821 5821 5821 5821 5820 5820 5820 5820 5820 5820 5819 5819 5819 5819 5818 5818 5818 5818 5818 5818
5790 5791 5792 5794 5795 5796 5796 5797 5798 5798 5799 5800 5801 5802 5803 5803 5805 5807 5807 5807 5808 5810 5810 5809 5807 5807 5807 5808 5809 5809 5809 5810 5810 5811 5811 5811 5812 5812 5812 5812 5813 5813 5814 5815 5816 5816 5816 5817 5817 5817 5817 5818 5817 5817 5817 5817 5817 5817 5817 5817 5817 5817 5817 5818 5818 5818 5818 5818 5819 5819 5819 5819 5819 5819 5819 5819 5819 5819 5819 5819 5819 5819 5819 5818 5818 5818 5818 5818 5817 5817 5817 5817 5817 5817 5817 5816 5816 5816 5816 5816 5815 5815 5815
5787 5788 5789 5791 5792 5792 5793 5794 5795 5796 5796 5797 5798 5799 5799 5800 5802 5803 5803 5804 5806 5807 5806 5805 5805 5805 5805 5805 5806 5806 5807 5807 5808 5808 5808 5809 5809 5809 5810 5810 5811 5811 5812 5813 5813 5813 5814 5814 5814 5815 5815 5815 5815 5815 5815 5815 5815 5814 5815 5815 5815 5815 5815 5815 5815 5816 5816 5816 5816 5816 5816 5816 5816 5816 5816 5817 5817 5817 5817 5817 5817 5816 5816 5816 5816 5816 5815 5815 5815 5815 5815 5814 5814 5814 5814 5814 5813 5813 5813 5813 5813 5812 5812
5785 5786 5787 5788 5789 5789 5790 5791 5792 5793 5794 5794 5795 5796 5797 5798 5798 5799 5800 5802 5803 5803 5802 5802 5803 5803 5802 5802 5802 5803 5804 5805 5806 5806 5806 5807 5807 5807 5807 5807 5808 5809 5810 5810 5810 5811 5811 5811 5812 5812 5812 5812 5812 5812 5812 5812 5812 5812 5812 5812 5812 5812 5812 5813 5813 5813 5813 5813 5813 5814 5814 5814 5814 5814 5814 5814 5814 5814 5814 5814 5814 5814 5814 5813 5813 5813 5813 5812 5812 5812 5812 5812 5812 5812 5811 5811 5811 5811 5810 5810 5810 5810 5810
5782 5784 5785 5786 5786 5787 5787 5788 5789 5790 5791 5792 5792 5793 5794 5795 5796 5797 5797 5798 5799 5800 5801 5801 5801 5801 5799 5799 5800 5801 5801 5802 5803 5803 5804 5804 5804 5805 5805 5805 5806 5806 5807 5807 5807 5807 5808 5808 5809 5809 5809 5809 5810 5810 5810 5810 5810 5810 5810 5810 5810 5810 5810 5810 5810 5811 5811 5811 5811 5811 5811 5811 5811 5811 5811 5811 5811 5811 5811 5811 5811 5811 5811 5811 5811 5811 5810 5810 5810 5809 5809 5809 5809 5809 5808 5808 5808 5808 5808 5807 5807 5807 5807
5780 5782 5782 5783 5784 5784 5785 5785 5786 5787 5788 5789 5790 5790 5791 5792 5793 5794 5794 5795 5797 5798 5800 5800 5799 5798 5796 5795 5796 5798 5799 5799 5800 5801 5802 5802 5802 5802 5802 5802 5803 5803 5804 5804 5804 5804 5805 5805 5806 5806 5806 5807 5807 5807 5807 5807 5807 5807 5807 5807 5807 5808 5808 5808 5808 5808 5808 5809 5809 5809 5809 5809 5808 5808 5808 5808 5808 5808 5808 5808 5808 5808 5808 5808 5808 5808 5808 5807 5807 5807 5807 5806 5806 5806 5806 5806 5805 5805 5805 5805 5805 5804 5804
5778 5779 5780 5780 5781 5782 5781 5782 5783 5783 5785 5786 5787 5787 5788 5789 5790 5791 5792 5793 5795 5797 5798 5799 5797 5794 5792 5792 5793 5795 5796 5796 5797 5798 5798 5799 5799 5799 5799 5799 5799 5800 5801 5801 5801 5801 5802 5802 5802 5803 5803 5803 5804 5804 5804 5804 5804 5804 5805 5805 5805 5805 5805 5806 5806 5806 5806 5807 5806 5806 5806 5806 5806 5806 5806 5806 5806 5806 5806 5805 5805 5805 5805 5805 5805 5805 5805 5805 5804 5804 5804 5803 5803 5803 5803 5802 5802 5802 5802 5802 5802 5802 5801
5776 5777 5777 5777 5778 5778 5777 5778 5779 5780 5782 5782 5783 5784 5785 5786 5787 5788 5789 5791 5793 5795 5797 5797 5795 5792 5791 5790 5791 5792 5793 5793 5794 5794 5795 5796 5796 5796 5796 5796 5796 5797 5798 5798 5798 5798 5798 5798 5798 5799 5799 5800 5800 5800 5801 5801 5802 5802 5802 5802 5803 5803 5803 5803 5803 5804 5804 5804 5804 5804 5804 5803 5803 5803 5803 5803 5803 5803 5803 5802 5802 5802 5802 5802 5802 5802 5802 5802 5802 5801 5801 5801 5800 5800 5800 5800 5800 5799 5799 5799 5798 5798 5798
5774 5774 5774 5774 5774 5773 5774 5775 5776 5777 5777 5779 5780 5781 5782 5782 5783 5785 5787 5788 5791 5793 5793 5793 5792 5790 5789 5788 5789 5790 5790 5791 5791 5792 5792 5794 5795 5795 5794 5794 5794 5794 5795 5796 5795 5795 5795 5795 5795 5795 5796 5796 5797 5797 5797 5798 5799 5799 5800 5800 5800 5801 5801 5801 5801 5801 5801 5801 5801 5801 5801 5801 5801 5801 5801 5801 5800 5800 5800 5800 5800 5799 5799 5799 5799 5799 5799 5799 5798 5798 5798 5798 5797 5797 5797 5797 5797 5796 5796 5796 5795 5795 5795
5771 5772 5772 5771 5770 5770 5771 5772 5772 5773 5774 5776 5777 5778 5779 5780 5781 5782 5783 5785 5788 5790 5791 5790 5789 5788 5787 5786 5786 5787 5788 5788 5789 5790 5790 5791 5792 5794 5794 5793 5792 5792 5793 5794 5794 5794 5794 5795 5795 5794 5793 5793 5793 5794 5795 5796 5796 5797 5797 5797 5798 5798 5798 5798 5798 5798 5799 5799 5799 5799 5798 5798 5798 5798 5798 5798 5798 5797 5797 5797 5797 5797 5797 5797 5796 5796 5796 5796 5795 5795 5795 5794 5794 5794 5794 5794 5794 5793 5793 5793 5792 5792 5792
5769 5770 5770 5769 5768 5767 5767 5768 5769 5771 5772 5773 5774 5775 5776 5777 5778 5779 5780 5782 5783 5785 5786 5787 5787 5786 5784 5783 5784 5785 5786 5786 5786 5787 5787 5788 5789 5791 5792 5792 5790 5790 5791 5793 5794 5794 5795 5796 5795 5793 5792 5791 5791 5792 5792 5793 5794 5794 5795 5795 5795 5795 5795 5795 5795 5796 5796 5796 5796 5796 5796 5796 5796 5795 5795 5795 5795 5795 5794 5794 5794 5794 5794 5794 5793 5793 5793 5793 5792 5792 5792 5791 5791 5791 5791 5791 5791 5790 5790 5790 5789 5789 5789
5767 5767 5768 5767 5766 5766 5765 5766 5767 5768 5770 5771 5772 5773 5774 5775 5775 5776 5777 5778 5780 5781 5781 5782 5782 5782 5781 5782 5782 5782 5782 5783 5783 5784 5785 5786 5787 5788 5789 5789 5788 5787 5788 5791 5791 5791 5791 5791 5790 5789 5788 5788 5789 5789 5790 5791 5791 5792 5792 5792 5792 5792 5792 5792 5792 5792 5793 5793 5793 5793 5793 5793 5792 5792 5792 5792 5792 5792 5792 5791 5791 5791 5791 5791 5791 5791 5790 5790 5790 5789 5789 5788 5788 5787 5787 5787 5787 5787 5787 5786 5786 5786 5786
5764 5765 5766 5765 5765 5764 5764 5764 5764 5766 5767 5769 5771 5772 5772 5773 5773 5773 5773 5774 5776 5777 5778 5778 5779 5780 5779 5779 5779 5779 5780 5780 5782 5782 5783 5783 5785 5786 5787 5785 5784 5784 5785 5787 5788 5787 5786 5786 5786 5785 5786 5787 5787 5787 5788 5788 5789 5789 5789 5789 5789 5789 5789 5789 5789 5789 5790 5790 5790 5790 5790 5790 5789 5789 5789 5789 5789 5789 5788 5788 5788 5788 5788 5788 5788 5788 5788 5787 5787 5786 5786 5785 5785 5784 5784 5783 5783 5783 5783 5782 5782 5782 5782
5761 5762 5763 5763 5763 5763 5762 5762 5762 5763 5764 5766 5767 5768 5770 5771 5772 5772 5772 5773 5773 5773 5774 5775 5776 5777 5777 5776 5776 5777 5777 5778 5780 5781 5781 5781 5783 5785 5785 5784 5783 5783 5783 5784 5784 5783 5783 5783 5783 5784 5784 5785 5785 5785 5786 5786 5787 5786 5786 5786 5786 5786 5786 5786 5786 5787 5787 5786 5786 5786 5786 5786 5786 5786 5786 5786 5786 5786 5786 5786 5785 5785 5785 5785 5785 5785 5785 5784 5784 5783 5783 5782 5782 5781 5780 5780 5779 5779 5779 5779 5778 5778 5778
5758 5759 5760 5761 5761 5760 5760 5761 5761 5762 5762 5763 5764 5765 5766 5767 5768 5769 5770 5772 5773 5774 5774 5772 5772 5773 5773 5772 5773 5775 5776 5777 5778 5779 5781 5780 5781 5781 5782 5782 5782 5782 5780 5780 5780 5780 5781 5782 5782 5782 5782 5782 5783 5783 5783 5784 5784 5783 5783 5783 5783 5783 5783 5783 5783 5783 5783 5783 5783 5783 5783 5783 5783 5783 5783 5783 5782 5782 5782 5782 5782 5782 5782 5782 5782 5782 5781 5781 5780 5780 5779 5778 5778 5777 5777 5776 5776 5775 5775 5774 5774 5774 5774
5756 5757 5757 5758 5758 5758 5758 5758 5759 5759 5760 5761 5762 5762 5763 5764 5765 5766 5767 5767 5767 5769 5770 5769 5769 5770 5770 5771 5773 5774 5776 5777 5778 5779 5779 5777 5777 5777 5777 5778 5777 5777 5777 5777 5778 5779 5779 5779 5780 5779 5779 5780 5781 5781 5782 5782 5781 5781 5780 5780 5780 5780 5780 5780 5780 5780 5780 5780 5780 5780 5780 5780 5780 5780 5779 5779 5779 5779 5779 5779 5779 5779 5778 5778 5778 5778 5777 5777 5777 5776 5776 5775 5774 5774 5773 5773 5772 5772 5771 5771 5770 5770 5770
5753 5754 5755 5755 5756 5755 5755 5756 5756 5757 5758 5758 5759 5760 5760 5761 5762 5763 5764 5764 5763 5763 5763 5765 5767 5768 5770 5772 5773 5774 5775 5775 5774 5774 5773 5772 5773 5773 5773 5773 5773 5774 5775 5776 5776 5777 5778 5778 5778 5777 5777 5777 5778 5779 5780 5780 5780 5778 5778 5777 5777 5777 5777 5777 5777 5777 5777 5777 5777 5777 5777 5777 5777 5777 5777 5777 5776 5776 5776 5776 5775 5775 5775 5775 5775 5774 5774 5773 5773 5772 5772 5772 5772 5771 5770 5770 5769 5768 5767 5767 5767 5766 5766
5751 5752 5752 5753 5753 5753 5753 5753 5753 5754 5755 5756 5757 5757 5758 5759 5760 5761 5762 5762 5762 5762 5761 5761 5762 5765 5768 5770 5771 5771 5770 5769 5768 5767 5767 5768 5769 5769 5770 5770 5771 5771 5772 5772 5773 5774 5775 5775 5775 5774 5775 5775 5775 5776 5776 5776 5775 5774 5774 5773 5773 5773 5774 5774 5774 5774 5774 5774 5774 5774 5773 5773 5773 5774 5774 5773 5773 5773 5772 5772 5772 5772 5772 5771 5771 5771 5771 5770 5770 5769 5769 5769 5769 5768 5767 5767 5766 5765 5765 5764 5763 5763 5762
5749 5750 5750 5751 5752 5752 5751 5750 5751 5751 5752 5753 5754 5755 5756 5757 5758 5759 5760 5761 5761 5761 5760 5759 5759 5760 5762 5763 5764 5762 5761 5761 5762 5763 5764 5765 5766 5766 5767 5767 5768 5768 5769 5769 5770 5771 5771 5771 5771 5772 5772 5772 5773 5773 5772 5772 5772 5771 5770 5770 5770 5771 5771 5771 5771 5771 5771 5771 5771 5770 5770 5770 5771 5771 5771 5771 5770 5770 5769 5769 5768 5768 5768 5768 5768 5767 5767 5767 5767 5766 5766 5766 5765 5765 5764 5764 5763 5762 5762 5761 5760 5760 5759
5746 5747 5748 5749 5750 5750 5749 5749 5749 5749 5750 5751 5752 5753 5753 5754 5755 5756 5757 5758 5760 5760 5759 5758 5757 5757 5758 5758 5758 5758 5757 5757 5758 5759 5761 5761 5762 5763 5764 5765 5765 5765 5765 5766 5767 5767 5768 5768 5768 5769 5769 5770 5770 5770 5770 5769 5769 5768 5768 5768 5768 5768 5768 5768 5768 5768 5767 5767 5767 5767 5767 5767 5768 5768 5768 5767 5767 5767 5766 5766 5765 5765 5765 5765 5764 5764 5764 5763 5763 5762 5762 5762 5762 5761 5761 5760 5760 5759 5758 5758 5757 5756 5755